MNE2201 LIBD-LYPG

Flight info

Callsign MNE2201
Flight time 0h 30m
Altitude 24000
Route PERAV DCT GISAM/N0401F230 DCT BIGLO
Aircraft E195/M-SDE3GILORVW/S

Departure

Time 2026-05-06 15:13
Airport Bari Karol Wojtyła International Airport (LIBD)

Arrival

Time 2026-05-06 15:43
Airport Podgorica Airport / Podgorica Golubovci Airbase (LYPG)
Time Latitude Longitude Altitude Speed Heading
2026-05-06 14:57 41.13615 16.76168 135 ft 0 kts 21°
2026-05-06 15:08 41.13618 16.76172 135 ft 1 kts 34°
2026-05-06 15:08 41.13620 16.76182 135 ft 2 kts 80°
2026-05-06 15:08 41.13596 16.76208 135 ft 8 kts 146°
2026-05-06 15:08 41.13585 16.76278 135 ft 9 kts 70°
2026-05-06 15:09 41.13610 16.76368 135 ft 11 kts 69°
2026-05-06 15:09 41.13641 16.76476 135 ft 14 kts 69°
2026-05-06 15:09 41.13715 16.76558 135 ft 15 kts 18°
2026-05-06 15:09 41.13809 16.76577 133 ft 15 kts 50°
2026-05-06 15:10 41.13852 16.76722 125 ft 20 kts 69°
2026-05-06 15:10 41.13905 16.76912 122 ft 23 kts 69°
2026-05-06 15:10 41.13964 16.77117 119 ft 25 kts 68°
2026-05-06 15:10 41.14020 16.77315 119 ft 16 kts 70°
2026-05-06 15:11 41.14069 16.77386 118 ft 7 kts 24°
2026-05-06 15:11 41.14128 16.77414 117 ft 11 kts 16°
2026-05-06 15:11 41.14198 16.77410 114 ft 8 kts 339°
2026-05-06 15:11 41.14218 16.77355 115 ft 8 kts 253°
2026-05-06 15:12 41.14215 16.77345 114 ft 0 kts 249°
2026-05-06 15:12 41.14195 16.77277 114 ft 35 kts 249°
2026-05-06 15:12 41.14020 16.76651 123 ft 110 kts 250°
2026-05-06 15:13 41.13682 16.75446 223 ft 166 kts 247°
2026-05-06 15:13 41.13238 16.73898 858 ft 191 kts 244°
2026-05-06 15:13 41.12734 16.72219 1741 ft 203 kts 244°
2026-05-06 15:13 41.12222 16.70424 2528 ft 213 kts 247°
2026-05-06 15:14 41.11713 16.68571 3549 ft 215 kts 248°
2026-05-06 15:14 41.11200 16.66727 4659 ft 214 kts 248°
2026-05-06 15:14 41.10685 16.64901 5732 ft 212 kts 249°
2026-05-06 15:14 41.10160 16.63057 6652 ft 214 kts 249°
2026-05-06 15:15 41.09636 16.61211 7576 ft 215 kts 249°
2026-05-06 15:15 41.09140 16.59358 8376 ft 219 kts 256°
2026-05-06 15:15 41.09210 16.57343 9147 ft 226 kts 288°
2026-05-06 15:15 41.10099 16.55587 9927 ft 236 kts 315°
2026-05-06 15:16 41.11574 16.54556 10670 ft 248 kts 343°
2026-05-06 15:16 41.13331 16.54628 11371 ft 261 kts 13°
2026-05-06 15:16 41.15051 16.55459 12138 ft 267 kts 20°
2026-05-06 15:16 41.16771 16.56443 12924 ft 271 kts 21°
2026-05-06 15:17 41.18485 16.57453 13743 ft 275 kts 22°
2026-05-06 15:17 41.20239 16.58538 14489 ft 280 kts 23°
2026-05-06 15:17 41.21989 16.59699 15288 ft 283 kts 25°
2026-05-06 15:17 41.23680 16.61197 15715 ft 308 kts 42°
2026-05-06 15:18 41.24951 16.63609 16011 ft 333 kts 67°
2026-05-06 15:18 41.25475 16.66688 16330 ft 354 kts 89°
2026-05-06 15:18 41.25425 16.70043 16759 ft 371 kts 95°
2026-05-06 15:18 41.25255 16.73499 17531 ft 377 kts 95°
2026-05-06 15:19 41.25168 16.77005 18341 ft 383 kts 86°
2026-05-06 15:19 41.25869 16.80374 19043 ft 388 kts 61°
2026-05-06 15:19 41.27559 16.83126 19781 ft 386 kts 35°
2026-05-06 15:19 41.29920 16.84732 20518 ft 381 kts 11°
2026-05-06 15:20 41.32516 16.85401 21275 ft 381 kts
2026-05-06 15:20 41.35153 16.85925 21965 ft 385 kts
2026-05-06 15:20 41.37820 16.86414 22644 ft 389 kts
2026-05-06 15:20 41.40482 16.87281 23268 ft 398 kts 14°
2026-05-06 15:21 41.43103 16.88554 23848 ft 403 kts 17°
2026-05-06 15:21 41.45709 16.89897 24109 ft 415 kts 17°
2026-05-06 15:21 41.48425 16.91295 24119 ft 421 kts 17°
2026-05-06 15:21 41.51156 16.92779 24068 ft 427 kts 22°
2026-05-06 15:22 41.53629 16.95003 24034 ft 434 kts 40°
2026-05-06 15:22 41.55521 16.98161 24005 ft 439 kts 55°
2026-05-06 15:22 41.57124 17.01629 23979 ft 439 kts 57°
2026-05-06 15:22 41.58711 17.05117 23985 ft 439 kts 57°
2026-05-06 15:23 41.60300 17.08536 23987 ft 439 kts 56°
2026-05-06 15:23 41.61922 17.11990 23990 ft 439 kts 56°
2026-05-06 15:23 41.63551 17.15445 23992 ft 439 kts 56°
2026-05-06 15:23 41.65177 17.18894 23991 ft 439 kts 56°
2026-05-06 15:24 41.66806 17.22349 23987 ft 439 kts 56°
2026-05-06 15:24 41.68430 17.25797 23987 ft 439 kts 56°
2026-05-06 15:24 41.70056 17.29253 23996 ft 439 kts 56°
2026-05-06 15:24 41.71682 17.32712 23981 ft 439 kts 56°
2026-05-06 15:25 41.73306 17.36175 23989 ft 439 kts 56°
2026-05-06 15:25 41.74906 17.39587 23988 ft 439 kts 56°
2026-05-06 15:25 41.76532 17.43058 23982 ft 440 kts 56°
2026-05-06 15:25 41.78155 17.46527 23983 ft 440 kts 56°
2026-05-06 15:26 41.79780 17.50004 24002 ft 440 kts 56°
2026-05-06 15:26 41.81403 17.53481 24013 ft 440 kts 56°
2026-05-06 15:26 41.83008 17.56975 24011 ft 441 kts 60°
2026-05-06 15:26 41.84275 17.60715 24032 ft 442 kts 69°
2026-05-06 15:27 41.85274 17.64612 24031 ft 442 kts 71°
2026-05-06 15:27 41.86240 17.68476 24012 ft 442 kts 70°
2026-05-06 15:27 41.87242 17.72366 24013 ft 442 kts 70°
2026-05-06 15:27 41.88259 17.76234 23706 ft 436 kts 70°
2026-05-06 15:28 41.89258 17.80015 23389 ft 424 kts 70°
2026-05-06 15:28 41.90244 17.83734 22755 ft 420 kts 70°
2026-05-06 15:28 41.91214 17.87399 22177 ft 414 kts 70°
2026-05-06 15:28 41.92172 17.91019 21647 ft 408 kts 70°
2026-05-06 15:29 41.93114 17.94579 21109 ft 402 kts 70°
2026-05-06 15:29 41.94032 17.98053 20589 ft 397 kts 70°
2026-05-06 15:29 41.94947 18.01522 20064 ft 392 kts 70°
2026-05-06 15:29 41.95854 18.04956 19556 ft 388 kts 70°
2026-05-06 15:30 41.96749 18.08352 19047 ft 384 kts 70°
2026-05-06 15:30 41.97634 18.11713 18543 ft 380 kts 70°
2026-05-06 15:30 41.98513 18.15052 17995 ft 377 kts 70°
2026-05-06 15:30 41.99380 18.18348 17550 ft 371 kts 70°
2026-05-06 15:31 42.00235 18.21603 17054 ft 369 kts 70°
2026-05-06 15:31 42.01074 18.24801 16578 ft 367 kts 70°
2026-05-06 15:31 42.01923 18.28033 16091 ft 365 kts 71°
2026-05-06 15:32 42.03602 18.34443 15124 ft 361 kts 71°
2026-05-06 15:32 42.04434 18.37623 14648 ft 359 kts 71°
2026-05-06 15:32 42.05258 18.40771 14177 ft 355 kts 71°
2026-05-06 15:32 42.06069 18.43880 13689 ft 351 kts 71°
2026-05-06 15:33 42.06866 18.46942 13242 ft 339 kts 71°
2026-05-06 15:33 42.07633 18.49879 12802 ft 327 kts 71°
2026-05-06 15:33 42.08377 18.52732 12395 ft 320 kts 71°
2026-05-06 15:33 42.09104 18.55520 11964 ft 319 kts 71°
2026-05-06 15:34 42.09833 18.58318 11554 ft 316 kts 71°
2026-05-06 15:34 42.10557 18.61103 11139 ft 314 kts 71°
2026-05-06 15:34 42.11273 18.63867 10726 ft 312 kts 71°
2026-05-06 15:34 42.11986 18.66620 10314 ft 310 kts 71°
2026-05-06 15:35 42.12696 18.69353 9894 ft 309 kts 71°
2026-05-06 15:35 42.13403 18.72083 9450 ft 308 kts 71°
2026-05-06 15:35 42.14100 18.74778 9005 ft 308 kts 71°
2026-05-06 15:35 42.14804 18.77490 8601 ft 305 kts 71°
2026-05-06 15:36 42.15497 18.80173 8217 ft 302 kts 71°
2026-05-06 15:36 42.16185 18.82834 7813 ft 299 kts 71°
2026-05-06 15:36 42.16866 18.85471 7413 ft 297 kts 72°
2026-05-06 15:36 42.17541 18.88088 7033 ft 294 kts 72°
2026-05-06 15:37 42.18210 18.90678 6641 ft 292 kts 72°
2026-05-06 15:37 42.18871 18.93245 6238 ft 286 kts 72°
2026-05-06 15:37 42.19505 18.95705 5897 ft 277 kts 72°
2026-05-06 15:37 42.20125 18.98126 5523 ft 267 kts 73°
2026-05-06 15:38 42.20718 19.00438 5175 ft 255 kts 73°
2026-05-06 15:38 42.21288 19.02639 4837 ft 242 kts 73°
2026-05-06 15:38 42.21832 19.04736 4555 ft 234 kts 73°
2026-05-06 15:38 42.22363 19.06809 4287 ft 234 kts 74°
2026-05-06 15:39 42.22884 19.08856 3964 ft 226 kts 75°
2026-05-06 15:39 42.23376 19.10781 3602 ft 215 kts 75°
2026-05-06 15:39 42.23852 19.12639 3307 ft 204 kts 73°
2026-05-06 15:39 42.24306 19.14427 3083 ft 198 kts 72°
2026-05-06 15:40 42.24748 19.16165 2854 ft 194 kts 72°
2026-05-06 15:40 42.25181 19.17867 2596 ft 191 kts 72°
2026-05-06 15:40 42.25610 19.19553 2347 ft 189 kts 72°
2026-05-06 15:40 42.26034 19.21218 2097 ft 187 kts 72°
2026-05-06 15:41 42.26545 19.22811 1861 ft 182 kts 57°
2026-05-06 15:41 42.27331 19.24059 1633 ft 167 kts 45°
2026-05-06 15:41 42.28343 19.24614 1291 ft 162 kts 358°
2026-05-06 15:41 42.29404 19.24496 1218 ft 149 kts 359°
2026-05-06 15:42 42.30438 19.24617 1019 ft 149 kts
2026-05-06 15:42 42.31473 19.24775 805 ft 150 kts
2026-05-06 15:42 42.32520 19.24838 590 ft 151 kts
2026-05-06 15:42 42.33573 19.24935 387 ft 151 kts
2026-05-06 15:43 42.34615 19.25045 177 ft 150 kts
2026-05-06 15:43 42.35604 19.25157 106 ft 129 kts
2026-05-06 15:43 42.36327 19.25226 108 ft 75 kts
2026-05-06 15:43 42.36590 19.25237 109 ft 19 kts 333°
2026-05-06 15:44 42.36625 19.25081 109 ft 11 kts 274°
2026-05-06 15:44 42.36632 19.24960 108 ft 15 kts 274°
2026-05-06 15:44 42.36653 19.24842 104 ft 10 kts 315°
2026-05-06 15:44 42.36715 19.24832 104 ft 6 kts
2026-05-06 15:45 42.36734 19.24800 104 ft 5 kts 279°
2026-05-06 15:45 42.36736 19.24763 104 ft 2 kts 276°
2026-05-06 15:45 42.36744 19.24752 104 ft 0 kts 322°